Temperature
22 21 21 22 24 25 27 32 34 34 34 34 34 34 33 31 30 28 27 26 24 24 24 23 23 23 22 21 21 20 20 20 20 19 19 19 19 19 19 19 19 19 19 19 19 19 19 19 19
22 21 22 25 26 27 30 33 34 34 34 34 34 34 32 30 30 28 26 25 24 24 24 23 23 23 22 22 21 21 20 20 20 20 19 19 19 19 19 19 19 19 19 19 19 19 19 19 19
22 23 25 28 29 30 32 34 34 35 34 34 34 33 31 30 28 27 26 24 23 23 23 23 23 23 22 22 21 21 20 20 20 20 19 19 19 19 19 19 19 19 19 19 19 19 19 19 20
22 25 27 30 31 34 34 35 35 35 35 34 34 32 29 29 28 26 25 24 23 22 23 23 23 23 22 22 22 21 21 20 20 20 20 19 19 19 19 19 19 19 19 19 19 19 19 20 20
24 27 30 31 33 35 36 35 35 35 35 34 33 30 29 27 27 26 25 24 23 22 23 23 23 23 22 22 22 21 21 21 20 20 20 20 19 19 19 19 19 19 19 19 19 19 19 20 20
26 30 31 32 34 35 36 35 35 35 34 33 32 30 28 27 27 26 26 25 24 22 23 23 23 22 22 22 22 21 21 21 20 20 20 20 20 19 19 19 19 19 19 19 19 19 19 20 20
28 30 31 33 34 35 35 35 35 34 34 33 32 30 28 27 27 26 26 25 25 23 22 23 23 22 22 22 22 21 21 21 21 20 20 20 20 20 20 19 19 19 19 19 19 19 19 20 20
28 31 31 33 34 35 35 35 34 34 33 32 31 29 27 27 27 26 26 26 25 23 22 23 22 22 22 21 21 21 21 21 20 20 20 20 20 20 20 20 20 19 19 19 19 19 19 19 20
29 30 30 33 34 35 35 34 34 33 31 30 29 28 27 27 27 26 26 26 25 24 22 22 21 21 21 21 21 21 20 20 20 20 20 20 20 20 20 20 20 20 19 19 19 19 19 19 19
30 30 31 34 35 35 34 34 33 33 31 29 28 28 27 27 26 26 26 26 25 24 23 22 21 20 20 20 20 20 20 20 20 20 20 20 20 19 19 19 19 19 19 19 19 19 19 19 19
31 31 32 34 34 34 34 33 32 32 29 27 27 27 27 26 26 26 25 25 24 23 23 22 21 20 20 20 20 19 19 19 19 19 19 19 19 18 18 19 19 18 18 19 19 19 19 19 19
32 32 32 33 33 33 33 33 31 29 27 26 25 25 25 25 25 25 24 24 23 23 22 22 21 20 20 20 20 19 19 19 19 19 19 18 18 18 18 18 19 18 18 18 18 18 18 18 18
32 32 32 32 32 32 32 31 30 27 25 24 23 23 23 23 23 22 22 22 22 21 21 21 20 20 19 19 19 19 19 19 19 19 18 18 18 18 18 18 18 18 18 18 18 18 18 18 18
32 33 33 33 32 32 32 31 29 26 24 23 22 21 21 21 21 21 21 21 21 20 20 20 19 19 19 18 19 18 18 18 18 18 18 18 18 18 18 18 18 18 18 18 18 18 18 18 18
32 32 32 32 32 32 31 29 27 24 23 22 21 20 19 19 19 19 19 19 19 19 19 19 19 18 18 18 18 18 18 18 18 18 18 17 17 17 17 17 17 17 18 18 18 17 17 18 17
32 31 30 31 31 31 31 27 25 23 22 21 20 19 19 18 18 18 18 18 18 18 18 18 18 18 17 17 17 17 17 17 17 17 17 17 17 17 17 17 17 17 17 17 17 17 17 17 17
30 29 28 27 28 30 30 26 25 23 22 21 21 20 19 19 18 18 18 18 18 18 17 17 18 17 17 17 17 17 17 17 17 16 16 16 16 16 16 16 16 16 16 16 16 16 16 16 17
28 27 26 25 27 28 28 26 25 24 23 22 21 20 20 19 18 18 18 17 17 17 17 17 17 17 17 17 17 16 16 16 16 16 16 16 16 16 16 16 16 16 16 16 16 16 16 16 16
29 28 26 26 27 28 28 27 26 25 24 23 22 21 20 19 19 18 18 18 17 17 17 17 17 17 17 17 17 16 16 16 16 16 16 15 15 15 15 15 15 15 15 15 15 15 15 15 16
30 29 27 27 27 28 28 27 26 25 25 24 23 21 21 20 19 18 18 18 17 17 17 17 16 16 16 16 16 16 16 16 16 16 15 15 15 15 14 15 15 15 15 15 15 15 15 15 15
29 28 27 26 27 28 27 26 24 24 24 23 23 22 21 21 20 19 19 18 18 17 17 17 16 16 15 15 15 15 15 15 15 15 15 14 14 14 14 14 14 14 14 14 14 14 14 15 15
27 28 28 27 26 26 26 23 23 23 23 24 23 23 22 22 21 20 19 19 18 18 17 17 16 15 15 15 14 14 14 14 14 14 14 14 14 14 14 14 14 14 14 14 14 14 14 14 15
29 29 28 26 25 24 22 20 20 21 22 23 24 24 23 22 21 20 20 19 19 18 17 17 16 15 15 14 14 13 13 13 13 13 13 13 13 13 14 13 13 13 13 13 14 14 14 14 14
31 29 26 22 21 20 19 19 20 21 22 23 24 24 23 22 22 21 20 19 19 18 17 17 16 15 14 14 13 13 12 12 12 12 12 13 13 13 13 13 13 13 13 13 13 13 14 14 14
30 28 25 21 19 19 20 20 21 24 24 25 25 24 23 23 22 21 20 19 19 18 17 17 16 15 14 13 13 12 12 12 12 12 12 12 12 12 13 13 13 12 12 12 12 13 13 13 13
29 28 25 24 24 23 22 21 23 25 25 25 25 24 23 23 22 21 20 20 19 18 17 16 15 14 13 13 12 12 11 11 11 11 11 11 11 11 12 12 12 12 12 12 12 12 12 12 13
29 29 29 28 27 25 23 23 23 25 25 25 25 24 24 23 22 21 20 19 18 17 16 15 15 14 13 12 12 11 11 11 11 10 10 10 10 11 11 11 11 11 11 11 11 11 11 12 12
30 30 29 28 26 26 26 24 23 24 25 25 25 24 23 22 21 20 19 18 17 16 15 15 14 13 12 12 11 11 11 10 10 10 9 9 9 10 10 10 10 10 10 10 11 11 11 11 11
29 29 28 28 27 26 26 24 25 25 25 25 25 24 23 21 20 19 18 17 16 16 15 14 13 12 12 11 11 10 10 10 9 9 9 9 9 9 9 9 9 9 10 10 10 10 11 11 11
30 29 28 27 26 27 27 25 26 26 26 25 24 23 22 20 19 19 18 17 16 15 14 13 12 12 11 11 10 10 10 9 9 9 9 9 8 8 8 8 8 9 9 9 10 10 10 10 10
Wind_Speed
14 14 11 8 5 5 6 6 10 11 11 10 8 9 17 17 12 8 10 19 24 21 20 19 18 16 15 13 12 12 13 13 12 12 11 11 10 10 9 9 8 8 7 8 8 9 8 8 8
14 13 9 6 5 4 2 7 10 9 7 5 7 11 18 17 13 11 13 19 23 20 18 18 19 17 15 13 12 12 12 13 13 12 12 11 11 10 9 9 8 7 7 8 8 8 8 8 8
14 14 7 6 9 6 4 8 8 6 7 6 8 13 12 11 12 10 15 20 21 18 18 19 19 17 15 13 12 12 12 12 12 12 11 11 10 10 9 9 8 7 7 8 8 8 7 7 7
9 10 7 10 14 5 5 8 6 6 7 6 7 11 10 9 9 13 17 20 20 18 18 19 18 17 15 14 12 11 11 11 11 11 11 10 10 10 9 9 8 8 8 8 8 8 8 7 7
11 7 12 15 14 5 4 6 5 6 6 8 12 13 12 12 15 17 17 19 18 18 18 19 18 16 15 13 12 11 11 10 10 10 10 10 10 10 9 9 9 8 8 8 8 9 9 8 8
7 8 13 14 9 3 4 6 6 8 6 8 11 14 10 12 14 15 16 16 18 19 18 18 17 16 14 13 12 11 10 10 10 10 10 10 10 10 10 10 10 10 10 10 9 9 10 10 9
11 13 18 20 14 6 3 4 6 5 7 8 7 12 10 11 13 14 14 14 17 19 18 15 16 14 13 12 11 11 10 10 10 10 10 10 10 10 10 11 11 11 11 12 12 11 11 11 11
12 12 19 19 16 6 6 4 5 5 6 7 10 9 10 12 12 14 13 12 14 18 17 15 15 14 13 12 12 11 10 10 10 10 10 10 11 11 12 13 14 14 13 13 13 13 13 14 14
15 13 17 18 13 5 7 5 5 5 9 12 14 12 12 13 13 13 11 11 11 14 14 13 14 13 12 13 14 13 11 11 11 11 12 12 12 14 15 18 19 18 17 16 16 15 15 15 16
13 14 19 16 13 10 7 5 5 2 11 11 11 10 12 11 10 10 10 10 9 9 10 10 10 10 7 7 12 11 11 12 13 12 13 13 13 13 14 18 23 22 20 19 18 18 17 16 14
18 19 19 18 13 10 9 6 6 5 11 12 10 8 8 9 7 6 6 8 9 6 4 8 8 7 3 1 5 4 5 8 12 13 12 12 11 11 12 8 14 18 19 16 17 17 16 16 14
20 19 18 16 12 11 10 6 5 13 12 12 10 10 9 9 7 7 7 7 9 5 5 7 8 6 3 4 2 1 2 1 3 7 10 7 4 5 5 4 5 9 12 11 10 10 14 15 16
18 17 16 14 12 9 7 3 3 13 13 13 13 14 13 12 12 13 13 12 10 7 7 8 8 8 6 5 5 5 4 4 4 3 4 5 4 5 6 5 5 6 7 6 8 9 11 12 10
14 15 13 12 9 6 6 2 4 12 12 12 12 12 13 14 14 14 14 12 11 10 9 8 8 7 5 3 3 4 4 4 5 5 6 5 4 4 5 6 6 6 8 8 6 9 9 9 9
13 14 14 12 9 6 6 4 8 9 10 10 10 9 11 12 13 14 12 12 11 10 9 8 6 7 5 4 5 4 4 4 4 4 6 7 6 4 4 6 7 7 9 9 7 8 8 8 10
15 15 13 7 5 7 9 6 9 8 9 9 8 8 9 10 11 11 10 10 10 9 9 8 8 8 6 5 5 4 4 4 4 5 6 8 8 8 5 6 7 6 7 6 8 9 9 8 8
12 8 5 3 6 5 6 10 9 9 9 9 8 8 8 8 9 9 9 9 9 8 8 7 8 8 7 6 5 4 3 2 2 3 3 5 7 8 5 6 5 5 5 6 9 7 7 8 9
6 4 3 4 5 7 4 11 10 9 10 10 9 9 8 8 8 8 8 8 8 7 7 6 6 7 7 6 5 5 4 4 2 1 2 4 5 7 6 6 5 5 4 5 5 6 7 7 9
9 8 7 5 5 6 5 9 10 9 10 10 10 9 9 9 8 7 6 7 7 6 6 5 6 6 5 5 6 5 5 5 3 2 3 4 5 6 5 6 5 4 4 5 5 5 6 7 7
7 4 0 1 4 7 5 7 8 7 8 9 10 10 10 9 8 7 6 5 6 5 3 3 5 5 5 5 5 5 5 5 4 2 2 2 3 4 5 5 5 5 4 5 5 5 4 5 5
8 6 4 5 7 8 6 7 9 7 7 7 9 9 9 9 8 7 5 4 3 3 1 2 2 3 4 6 6 6 6 6 5 5 3 2 3 3 3 4 4 5 4 4 4 4 5 4 5
6 7 8 7 6 6 5 3 6 9 9 8 9 9 9 7 7 5 4 3 1 0 0 1 1 2 3 5 6 8 8 8 8 6 5 6 5 4 3 3 3 3 4 5 5 4 3 4 5
5 5 4 8 8 8 6 3 2 8 9 10 10 9 7 6 5 3 2 1 1 3 3 2 2 2 3 5 7 8 8 8 8 8 10 9 8 6 5 4 2 3 3 4 4 4 4 3 5
7 5 5 12 8 7 5 3 5 9 10 10 9 7 5 3 3 2 1 1 2 4 4 4 3 5 6 6 8 8 9 8 10 11 11 10 7 6 5 4 2 3 3 3 4 4 4 4 6
9 8 3 4 1 7 10 5 5 8 10 9 8 5 3 2 1 1 3 4 4 5 5 4 4 5 6 7 8 8 9 10 11 11 9 8 7 7 7 6 3 3 4 4 4 4 4 4 5
9 7 5 7 6 3 6 3 5 10 9 7 5 2 0 1 2 3 4 4 5 6 6 6 6 6 6 7 8 8 9 9 8 9 10 10 9 9 9 8 6 6 5 6 5 4 5 4 4
8 8 9 9 10 3 4 7 7 7 7 4 2 2 4 5 6 6 7 8 8 8 7 7 7 7 6 7 8 8 8 7 9 9 10 10 8 10 10 9 9 8 7 7 6 5 6 5 5
7 9 8 8 8 7 3 6 6 6 4 5 6 6 7 8 9 10 10 10 9 8 7 7 7 7 7 8 8 10 8 8 8 9 9 9 10 10 10 10 10 10 9 8 7 7 7 7 6
7 7 7 8 8 8 6 6 8 5 4 5 7 8 8 9 10 10 10 9 9 9 9 8 8 8 8 8 7 7 8 8 9 9 9 9 9 9 10 10 10 10 10 9 8 9 8 8 8
4 5 6 6 7 7 7 5 4 2 5 8 8 8 9 9 10 10 10 10 10 10 11 10 10 9 9 8 8 8 8 9 10 11 10 10 10 10 11 10 11 12 12 10 10 11 11 10 9
Wind_Direction
176 192 208 225 245 244 286 15 43 41 43 44 44 39 56 50 46 76 92 104 114 122 130 134 133 132 130 128 131 140 147 149 148 146 145 145 143 142 141 140 138 135 130 125 123 120 115 111 110
187 197 211 234 242 258 343 32 45 50 51 40 60 54 63 59 66 94 99 112 118 125 136 135 135 134 133 131 133 141 149 152 152 152 152 152 152 153 153 153 153 152 147 139 134 129 126 123 122
211 217 238 245 247 267 6 36 35 58 73 47 70 69 56 65 77 96 116 120 120 126 129 133 139 138 138 137 138 144 150 155 156 157 158 159 159 161 162 165 166 166 162 153 147 144 141 139 140
224 223 243 255 272 298 22 31 12 40 74 61 66 80 73 59 89 114 126 122 123 130 131 138 142 142 143 144 145 149 153 158 161 162 163 165 167 170 173 173 175 176 173 165 159 157 156 158 160
239 253 245 260 272 310 46 37 355 29 47 57 80 92 90 88 105 122 128 128 136 135 132 141 145 145 147 150 153 155 157 161 165 169 172 175 179 183 185 182 182 180 179 177 172 171 171 173 178
245 254 267 279 285 300 46 39 8 37 43 55 90 103 99 114 123 132 135 142 139 134 134 140 146 148 151 155 159 163 165 169 174 180 183 187 191 195 197 193 191 191 190 186 185 185 184 185 190
256 278 285 290 293 291 57 17 18 28 49 36 66 101 118 133 133 135 140 143 139 133 133 145 150 153 158 163 168 173 177 181 186 191 195 198 203 207 207 206 204 203 201 197 195 195 197 196 199
264 284 285 284 284 291 78 25 34 40 61 35 40 93 132 135 141 135 142 144 139 134 139 151 155 157 165 172 179 183 189 193 199 205 209 213 217 220 221 218 214 214 212 208 206 205 205 205 206
259 265 271 278 302 344 50 20 12 50 77 63 55 72 118 135 136 138 146 146 139 134 139 155 155 160 174 180 178 184 196 203 208 214 219 222 226 224 220 224 218 214 214 214 214 214 213 212 214
239 255 266 287 322 330 349 347 331 10 70 61 63 79 113 129 134 147 148 145 134 126 139 143 144 149 175 184 158 184 198 200 207 216 210 215 231 243 241 222 215 214 214 216 219 220 219 218 221
243 253 273 292 309 316 311 321 10 38 62 46 41 57 98 112 124 134 132 130 119 123 125 123 116 122 155 125 148 194 210 191 204 224 218 218 231 246 256 245 210 211 214 218 221 220 223 221 222
249 256 270 284 298 299 294 303 39 59 57 54 50 46 60 72 79 86 95 97 104 98 72 67 94 95 54 26 352 298 291 213 211 218 226 232 229 249 269 275 238 206 210 212 219 215 217 223 224
252 252 259 268 270 273 277 295 66 76 64 56 51 49 49 52 61 64 66 67 80 75 61 56 61 64 48 26 348 341 333 327 310 312 264 260 253 255 262 272 283 276 251 221 216 220 217 216 221
271 270 263 259 258 254 246 199 95 79 75 69 60 52 49 51 55 58 58 59 61 58 50 50 59 60 47 28 345 317 316 318 316 324 327 315 290 273 272 270 268 269 270 269 246 232 232 222 223
258 263 259 248 237 217 204 139 88 82 87 80 74 64 57 55 57 57 57 58 59 59 51 40 55 55 40 13 350 330 317 333 336 333 334 337 321 299 280 270 265 259 259 264 269 261 252 233 224
260 250 251 252 244 198 206 131 102 99 100 98 94 87 77 67 65 64 64 60 57 56 54 40 34 33 27 17 347 333 338 344 334 341 353 354 339 323 305 285 275 272 265 261 263 258 253 252 242
258 263 274 331 302 246 199 128 127 131 130 121 115 108 98 89 80 75 74 72 67 63 59 54 43 25 7 354 335 327 318 320 320 342 11 354 340 329 310 292 286 286 273 264 262 261 253 251 251
313 310 275 226 240 258 149 129 139 148 137 131 128 122 112 101 93 89 86 88 83 75 63 53 52 29 358 6 346 349 344 345 326 348 38 9 345 338 326 305 305 300 295 290 273 269 267 257 252
246 214 189 177 230 252 190 146 146 151 148 140 136 129 120 114 113 108 102 100 94 86 76 62 47 36 5 15 349 339 341 333 316 314 53 13 345 340 321 320 323 310 298 295 287 270 270 260 249
283 307 198 158 273 272 180 151 138 145 139 134 132 132 134 133 128 129 134 121 105 97 87 83 50 27 3 5 322 306 324 308 296 347 36 10 349 338 328 336 321 315 310 298 288 278 268 268 247
324 337 299 256 248 255 223 176 144 138 136 139 142 142 142 145 142 142 133 121 118 110 88 55 48 4 0 344 322 336 325 310 322 330 318 350 326 310 308 308 312 314 309 307 301 275 264 267 273
308 306 296 289 270 264 240 226 157 164 177 168 162 154 147 139 141 148 157 150 146 209 100 85 44 11 355 337 332 328 315 314 317 318 321 321 303 283 275 278 292 308 309 310 312 314 279 259 267
276 262 300 340 337 327 357 356 234 192 185 175 170 156 149 152 155 162 177 184 307 325 344 355 33 17 352 338 320 316 313 318 315 317 310 305 292 270 254 245 248 277 295 311 314 315 304 281 271
282 279 24 31 13 333 299 275 207 201 187 175 168 155 158 173 185 181 246 285 307 316 316 330 22 14 356 335 324 316 316 314 310 301 293 292 287 284 282 268 238 261 276 295 299 300 301 287 277
302 294 329 2 280 251 225 226 190 171 157 152 142 138 162 186 212 251 279 296 307 310 323 341 2 357 343 330 322 320 316 309 295 290 299 309 312 310 308 310 297 281 272 266 266 275 278 278 279
299 301 301 297 284 244 185 190 116 105 104 106 107 108 297 307 320 305 309 328 338 340 354 353 352 338 330 320 313 308 297 296 302 317 322 310 300 295 297 301 288 275 268 271 264 264 265 261 267
317 322 317 308 315 346 148 136 117 122 122 103 56 8 357 358 343 339 351 351 351 354 357 350 342 335 327 318 307 293 295 313 315 310 300 298 301 301 305 314 305 290 273 260 257 257 259 257 251
327 331 342 333 339 338 62 100 119 121 52 18 10 9 3 352 352 357 353 347 351 349 348 344 339 332 324 315 312 315 324 312 301 302 300 296 292 291 290 287 285 283 276 261 244 247 250 244 240
335 353 356 340 345 335 349 78 101 72 21 12 8 5 358 355 353 348 345 350 349 343 340 341 335 329 322 318 317 313 307 306 304 298 294 295 297 296 293 289 285 281 276 268 254 246 244 245 243
321 353 343 334 334 317 323 104 103 89 40 35 12 5 6 1 349 344 344 348 342 338 337 332 329 324 320 320 315 310 307 305 302 302 301 299 294 291 291 287 285 281 277 269 261 252 247 240 238
Height
1508 1510 1511 1515 1513 1508 1499 1475 1465 1464 1465 1467 1467 1467 1469 1476 1481 1494 1496 1495 1494 1496 1499 1503 1506 1509 1512 1515 1517 1520 1522 1524 1526 1528 1530 1532 1533 1535 1536 1538 1539 1540 1542 1543 1544 1545 1546 1547 1548
1508 1510 1514 1512 1508 1508 1492 1471 1467 1466 1467 1467 1467 1469 1473 1481 1486 1492 1495 1496 1495 1497 1500 1503 1506 1510 1512 1515 1517 1520 1522 1524 1527 1528 1530 1532 1534 1535 1537 1538 1540 1541 1542 1544 1545 1546 1547 1548 1549
1509 1511 1512 1502 1494 1492 1481 1467 1465 1464 1466 1467 1468 1472 1479 1486 1490 1493 1496 1498 1497 1499 1501 1504 1507 1510 1513 1515 1518 1520 1522 1525 1527 1529 1530 1532 1534 1536 1537 1539 1540 1541 1543 1544 1545 1547 1548 1549 1550
1510 1512 1507 1496 1486 1472 1467 1464 1464 1463 1466 1467 1468 1475 1485 1489 1491 1494 1496 1498 1499 1500 1502 1505 1508 1511 1513 1516 1518 1520 1523 1525 1527 1529 1531 1532 1534 1536 1537 1539 1540 1542 1543 1544 1545 1547 1548 1549 1551
1512 1507 1498 1489 1477 1465 1461 1464 1465 1465 1467 1468 1471 1480 1488 1492 1493 1495 1498 1499 1501 1502 1503 1507 1509 1512 1514 1516 1518 1521 1523 1525 1527 1529 1531 1532 1534 1535 1537 1538 1540 1541 1543 1544 1545 1546 1547 1549 1550
1510 1499 1494 1486 1472 1463 1461 1465 1466 1468 1470 1471 1474 1480 1490 1494 1495 1497 1499 1501 1503 1504 1505 1508 1510 1513 1515 1517 1519 1521 1523 1525 1527 1529 1530 1532 1533 1535 1536 1538 1539 1540 1541 1543 1544 1545 1546 1548 1549
1508 1498 1492 1480 1471 1464 1462 1466 1467 1469 1472 1474 1476 1481 1490 1495 1497 1498 1501 1503 1505 1506 1506 1509 1511 1514 1516 1518 1520 1522 1523 1525 1527 1528 1530 1531 1532 1534 1535 1537 1538 1539 1540 1542 1543 1544 1545 1546 1548
1505 1499 1491 1479 1471 1464 1463 1467 1469 1472 1476 1478 1478 1483 1492 1495 1497 1500 1502 1505 1507 1508 1508 1510 1512 1515 1517 1519 1521 1522 1524 1525 1527 1528 1529 1531 1532 1533 1534 1535 1536 1537 1539 1540 1541 1542 1543 1544 1545
1504 1501 1495 1480 1470 1465 1465 1469 1471 1474 1477 1481 1483 1487 1491 1495 1497 1501 1503 1506 1509 1511 1511 1513 1514 1515 1517 1519 1521 1523 1524 1525 1527 1528 1529 1530 1530 1531 1532 1533 1534 1535 1536 1537 1538 1539 1540 1541 1542
1499 1498 1487 1473 1469 1468 1469 1472 1474 1476 1481 1486 1488 1491 1493 1496 1499 1502 1504 1507 1510 1512 1514 1515 1516 1516 1519 1521 1521 1523 1524 1525 1526 1527 1527 1528 1529 1530 1532 1532 1532 1532 1533 1534 1535 1536 1536 1537 1538
1491 1489 1482 1476 1474 1473 1473 1474 1476 1478 1486 1492 1494 1495 1495 1497 1500 1502 1505 1506 1510 1513 1515 1516 1517 1517 1520 1522 1522 1523 1524 1525 1525 1526 1526 1526 1527 1528 1529 1530 1529 1529 1529 1529 1530 1531 1532 1533 1534
1486 1483 1480 1478 1476 1477 1476 1477 1480 1485 1493 1497 1498 1498 1498 1499 1501 1502 1505 1507 1510 1513 1515 1516 1517 1517 1519 1521 1522 1523 1524 1524 1524 1524 1524 1525 1525 1525 1526 1527 1527 1526 1525 1524 1525 1525 1526 1528 1529
1479 1478 1477 1477 1477 1477 1478 1480 1483 1491 1496 1498 1500 1500 1501 1501 1502 1503 1506 1507 1509 1512 1514 1515 1516 1516 1518 1519 1520 1521 1521 1522 1523 1522 1522 1522 1521 1521 1521 1521 1522 1522 1521 1521 1520 1521 1522 1523 1524
1476 1474 1473 1473 1474 1476 1477 1481 1486 1494 1498 1501 1503 1504 1504 1504 1505 1505 1507 1508 1510 1512 1514 1515 1516 1516 1517 1518 1518 1519 1519 1520 1520 1520 1519 1518 1517 1517 1516 1516 1516 1516 1516 1516 1516 1516 1516 1516 1518
1475 1475 1473 1471 1472 1474 1477 1484 1491 1498 1500 1503 1506 1507 1507 1507 1507 1507 1509 1510 1511 1512 1514 1515 1516 1516 1516 1516 1517 1517 1517 1518 1517 1516 1515 1514 1513 1512 1511 1510 1509 1509 1510 1509 1509 1509 1510 1510 1512
1473 1475 1478 1473 1472 1472 1478 1494 1495 1499 1503 1505 1508 1509 1510 1509 1510 1510 1511 1511 1512 1513 1514 1515 1516 1516 1516 1515 1515 1515 1515 1515 1514 1513 1511 1510 1509 1508 1506 1504 1503 1503 1502 1502 1501 1502 1502 1503 1506
1475 1484 1486 1484 1476 1474 1476 1492 1496 1499 1503 1506 1508 1510 1511 1511 1512 1512 1512 1513 1513 1514 1514 1515 1515 1515 1515 1515 1514 1514 1514 1512 1511 1510 1508 1506 1505 1503 1501 1499 1498 1496 1495 1495 1495 1495 1495 1496 1499
1487 1489 1494 1495 1484 1478 1480 1489 1493 1497 1500 1503 1507 1509 1511 1512 1513 1514 1514 1514 1514 1515 1515 1515 1515 1514 1514 1514 1513 1513 1512 1511 1509 1507 1505 1503 1501 1500 1498 1495 1493 1491 1490 1489 1489 1489 1489 1490 1492
1475 1481 1488 1489 1483 1480 1481 1485 1490 1495 1497 1501 1504 1508 1510 1512 1514 1515 1515 1516 1516 1516 1515 1515 1514 1514 1513 1512 1511 1510 1510 1508 1507 1505 1503 1500 1499 1497 1494 1492 1489 1488 1486 1485 1484 1483 1483 1485 1486
1470 1477 1484 1483 1479 1478 1479 1484 1488 1494 1497 1500 1504 1507 1510 1512 1514 1515 1516 1516 1516 1516 1516 1515 1514 1513 1512 1511 1510 1509 1508 1506 1505 1503 1500 1498 1496 1494 1492 1489 1486 1484 1483 1481 1480 1479 1480 1480 1482
1473 1479 1483 1485 1479 1475 1481 1489 1492 1495 1499 1503 1505 1507 1509 1511 1513 1515 1516 1516 1516 1516 1516 1515 1513 1511 1510 1509 1508 1506 1504 1503 1502 1500 1498 1495 1493 1491 1489 1486 1484 1482 1480 1478 1477 1476 1476 1477 1478
1481 1475 1475 1480 1487 1489 1487 1505 1499 1498 1500 1501 1504 1506 1508 1510 1512 1513 1514 1515 1515 1515 1515 1513 1511 1509 1508 1506 1505 1503 1501 1499 1498 1496 1494 1492 1490 1488 1485 1483 1481 1479 1477 1476 1474 1474 1474 1474 1475
1474 1471 1476 1483 1492 1498 1504 1516 1512 1503 1503 1499 1500 1503 1506 1508 1510 1512 1513 1514 1514 1514 1513 1511 1509 1507 1505 1503 1502 1500 1498 1496 1493 1491 1489 1487 1485 1484 1482 1479 1478 1476 1475 1473 1472 1471 1471 1471 1472
1465 1470 1481 1494 1507 1523 1519 1524 1517 1505 1499 1497 1498 1501 1505 1507 1509 1510 1511 1511 1511 1511 1510 1509 1506 1504 1502 1500 1498 1496 1494 1491 1488 1486 1484 1482 1481 1480 1478 1477 1474 1473 1471 1470 1469 1468 1467 1467 1468
1466 1477 1500 1521 1532 1527 1508 1515 1507 1492 1490 1492 1496 1500 1503 1505 1506 1508 1508 1509 1508 1508 1507 1505 1503 1501 1499 1497 1495 1492 1490 1487 1484 1482 1480 1478 1476 1475 1474 1472 1470 1469 1468 1466 1465 1464 1464 1464 1464
1469 1475 1497 1512 1508 1502 1500 1509 1497 1488 1491 1493 1496 1499 1501 1502 1504 1505 1505 1506 1505 1505 1503 1502 1499 1497 1495 1493 1490 1488 1485 1482 1480 1478 1475 1473 1471 1470 1469 1467 1465 1464 1463 1462 1461 1460 1460 1459 1459
1470 1471 1466 1477 1477 1490 1499 1498 1494 1488 1491 1493 1494 1496 1498 1500 1502 1503 1503 1503 1503 1501 1500 1498 1496 1493 1491 1488 1486 1483 1481 1478 1475 1472 1470 1467 1466 1464 1462 1460 1459 1458 1457 1457 1456 1455 1455 1455 1455
1466 1466 1471 1481 1493 1495 1490 1495 1501 1493 1492 1492 1493 1496 1498 1500 1501 1501 1502 1501 1500 1499 1497 1495 1492 1490 1487 1484 1481 1479 1476 1472 1469 1466 1464 1461 1459 1457 1455 1454 1453 1452 1451 1451 1450 1450 1450 1450 1449
1471 1472 1475 1478 1481 1495 1497 1502 1488 1490 1490 1491 1493 1495 1498 1499 1500 1500 1500 1499 1497 1496 1494 1491 1489 1486 1483 1480 1477 1473 1470 1467 1464 1461 1458 1456 1453 1451 1449 1447 1446 1445 1444 1444 1444 1444 1444 1444 1444
1468 1473 1476 1490 1491 1484 1489 1500 1483 1485 1486 1490 1493 1495 1497 1498 1499 1499 1498 1496 1495 1493 1490 1488 1485 1482 1479 1475 1472 1469 1465 1462 1459 1456 1453 1450 1447 1445 1442 1440 1439 1438 1437 1437 1437 1437 1438 1438 1438